Tracking 26911 objects as of 8-Feb-2023
HD Live streaming from Space Station
objects crossing your sky now

COSMOS 1473

Track COSMOS 1473 now!
10-day predictions
COSMOS 1473 is classified as:


NORAD ID: 14171
Int'l Code: 1983-069A
Perigee: 1,400.7 km
Apogee: 1,469.9 km
Inclination: 74.0 °
Period: 114.4 minutes
Semi major axis: 7806 km
RCS: 0.7151 m2 (medium)
Launch date: July 6, 1983
Source: Commonwealth of Independent States (former USSR) (CIS)
Launch site: PLESETSK MISSILE AND SPACE COMPLEX (PKMTR)
Your satellite tracking list
Your tracking list is empty




NASA's NSSDC Master Catalog

Two Line Element Set (TLE):
1 14171U 83069A   23038.92777906 -.00000022  00000-0 -31803-4 0  9998
2 14171  74.0233 204.6764 0044338 323.4867 151.0820 12.58734035819350
Source of the keplerian elements: AFSPC